Location: site
(53.0000°N, 23.0500°E)
Time: 17:30:52
(UTC+01:00)

SAOCOM 1-A - Pass Details

Date: 19 January 2020
Orbit: 621 x 623 km, 97.9° (Epoch: 25 February)

Event Time Altitude Azimuth Distance (km) Brightness Sun altitude
Rises 06:07:48 0° 213° (SSW) 2,896 ? -11.9°
Reaches altitude 10° 06:10:52 10° 237° (WSW) 1,996 ? -11.5°
Maximum altitude 06:13:22 15° 273° (W) 1,694 ? -11.1°
Enters shadow 06:13:39 15° 277° (W) 1,699 ? -11.1°
